Weather History for Wheaton NDB, MN

Change the Weather History Date:

Friday, November 29, 2013

  Actual Average Record
Temperature  
Mean Temperature 26 °F -  
Max Temperature 39 °F 33 °F 54 °F (1949)
Min Temperature 14 °F 15 °F -13 °F (1958)
Degree Days  
Heating Degree Days 38    
Moisture  
Dew Point 16 °F    
Average Humidity 71    
Maximum Humidity 86    
Minimum Humidity 52    
Precipitation  
Precipitation 0.00 in - - ()
Sea Level Pressure  
Sea Level Pressure 30.22 in    
Wind  
Wind Speed 11 mph (SE)    
Max Wind Speed 24 mph    
Max Gust Speed 30 mph    
Visibility 10 miles    
Events      
Averages and records for this station are not official NWS values.
T = Trace of Precipitation, MM = Missing Value Source: NWS Daily Summary

Daily Weather History Graph

Daily Weather History Graph

Search for Another Location

Airport:

Trip Planner

Search our weather history database for the weather conditions in past years. The results will help you decide how hot, cold, wet, or windy it might be!

Date:

Astronomy

Nov. 29, 2013 Rise Set
Actual Time 7:44 AM CST 4:44 PM CST
Civil Twilight 7:11 AM CST 5:17 PM CST
Nautical Twilight 6:34 AM CST 5:54 PM CST
Astronomical Twilight 5:58 AM CST 6:30 PM CST
Moon 3:41 AM CST (11/29) 2:38 PM CST (11/29)
Length of Visible Light 10h 06m
Length of Day
8h 59m
Waning Crescent, 14% of the Moon is Illuminated
Nov 29
Waning Crescent
Dec 2
New
Dec 9
First Quarter
Dec 17
Full
Dec 25
Last Quarter

Hourly Weather History & Observations

Time (CST) Temp. Windchill Dew Point Humidity Pressure Visibility Wind Dir Wind Speed Gust Speed Precip Events Conditions
12:14 AM 14.0 °F 3.9 °F 8.6 °F 79% 30.47 in 10.0 mi SSE 6.9 mph - N/A   Clear
12:34 AM 15.8 °F 6.1 °F 8.6 °F 73% 30.46 in 10.0 mi SSE 6.9 mph - N/A   Clear
12:54 AM 15.8 °F 6.1 °F 10.4 °F 79% 30.46 in 10.0 mi SSE 6.9 mph - N/A   Clear
1:14 AM 15.8 °F 7.2 °F 10.4 °F 79% 30.46 in 10.0 mi SSE 5.8 mph - N/A   Clear
1:34 AM 15.8 °F 7.2 °F 10.4 °F 79% 30.46 in 10.0 mi SE 5.8 mph - N/A   Clear
1:54 AM 15.8 °F 7.2 °F 10.4 °F 79% 30.45 in 10.0 mi SSE 5.8 mph - N/A   Clear
2:14 AM 15.8 °F 5.1 °F 10.4 °F 79% 30.45 in 10.0 mi SSE 8.1 mph - N/A   Clear
2:34 AM 15.8 °F 5.1 °F 10.4 °F 79% 30.44 in 10.0 mi SSE 8.1 mph - N/A   Clear
2:54 AM 15.8 °F 6.1 °F 10.4 °F 79% 30.44 in 10.0 mi SE 6.9 mph - N/A   Clear
3:14 AM 14.0 °F 5.1 °F 8.6 °F 79% 30.43 in 10.0 mi SE 5.8 mph - N/A   Clear
3:34 AM 15.8 °F 5.1 °F 10.4 °F 79% 30.43 in 10.0 mi SE 8.1 mph - N/A   Clear
3:54 AM 15.8 °F 3.4 °F 10.4 °F 79% 30.41 in 10.0 mi SSE 10.4 mph - N/A   Clear
4:14 AM 15.8 °F 2.7 °F 10.4 °F 79% 30.40 in 10.0 mi SSE 11.5 mph - N/A   Clear
4:34 AM 15.8 °F 5.1 °F 10.4 °F 79% 30.40 in 10.0 mi SE 8.1 mph - N/A   Clear
4:54 AM 14.0 °F 2.0 °F 8.6 °F 79% 30.40 in 10.0 mi SE 9.2 mph - N/A   Clear
5:14 AM 14.0 °F 2.0 °F 10.4 °F 86% 30.39 in 10.0 mi SE 9.2 mph - N/A   Clear
5:34 AM 14.0 °F 2.0 °F 10.4 °F 86% 30.39 in 10.0 mi SE 9.2 mph - N/A   Clear
5:54 AM 14.0 °F 1.2 °F 8.6 °F 79% 30.38 in 10.0 mi SE 10.4 mph - N/A   Clear
6:14 AM 14.0 °F 1.2 °F 8.6 °F 79% 30.37 in 10.0 mi SE 10.4 mph - N/A   Clear
6:34 AM 14.0 °F 0.5 °F 10.4 °F 86% 30.37 in 10.0 mi SE 11.5 mph - N/A   Clear
6:54 AM 15.8 °F 2.1 °F 10.4 °F 79% 30.36 in 10.0 mi SE 12.7 mph - N/A   Clear
7:14 AM 15.8 °F 2.1 °F 10.4 °F 79% 30.35 in 10.0 mi ESE 12.7 mph - N/A   Clear
7:34 AM 17.6 °F 3.2 °F 10.4 °F 73% 30.35 in 10.0 mi SE 15.0 mph - N/A   Clear
7:54 AM 17.6 °F 2.7 °F 10.4 °F 73% 30.34 in 10.0 mi SE 16.1 mph - N/A   Clear
8:14 AM 17.6 °F 2.7 °F 10.4 °F 73% 30.33 in 10.0 mi SE 16.1 mph 21.9 mph N/A   Clear
8:34 AM 17.6 °F 1.7 °F 12.2 °F 79% 30.32 in 10.0 mi SE 18.4 mph - N/A   Clear
8:54 AM 19.4 °F 3.6 °F 12.2 °F 74% 30.31 in 10.0 mi SE 19.6 mph 24.2 mph N/A   Clear
9:14 AM 19.4 °F 3.6 °F 12.2 °F 74% 30.30 in 10.0 mi SE 19.6 mph 24.2 mph N/A   Clear
9:34 AM 21.2 °F 5.2 °F 14.0 °F 74% 30.29 in 10.0 mi SE 21.9 mph - N/A   Clear
9:54 AM 23.0 °F 7.6 °F 15.8 °F 74% 30.28 in 10.0 mi SE 21.9 mph - N/A   Clear
10:14 AM 24.8 °F 10.0 °F 15.8 °F 69% 30.27 in 10.0 mi SE 21.9 mph - N/A   Clear
10:34 AM 26.6 °F 12.4 °F 15.8 °F 64% 30.25 in 10.0 mi SE 21.9 mph 28.8 mph N/A   Clear
10:54 AM 28.4 °F 16.6 °F 17.6 °F 64% 30.25 in 10.0 mi SE 16.1 mph 25.3 mph N/A   Clear
11:14 AM 30.2 °F 17.8 °F 17.6 °F 60% 30.24 in 10.0 mi SE 19.6 mph 26.5 mph N/A   Clear
11:34 AM 30.2 °F 17.8 °F 19.4 °F 64% 30.21 in 10.0 mi SSE 19.6 mph 27.6 mph N/A   Clear
11:54 AM 32.0 °F 19.2 °F 19.4 °F 60% 30.19 in 10.0 mi SSE 23.0 mph 29.9 mph N/A   Clear
12:14 PM 33.8 °F 21.3 °F 19.4 °F 56% 30.18 in 10.0 mi SE 24.2 mph 29.9 mph N/A   Clear
12:34 PM 33.8 °F 22.5 °F 19.4 °F 56% 30.17 in 10.0 mi SE 19.6 mph 27.6 mph N/A   Clear
12:54 PM 35.6 °F 24.8 °F 19.4 °F 52% 30.17 in 10.0 mi SSE 19.6 mph 26.5 mph N/A   Clear
1:14 PM 35.6 °F 25.2 °F 21.2 °F 56% 30.16 in 10.0 mi SSE 18.4 mph 29.9 mph N/A   Clear
1:34 PM 37.4 °F 26.9 °F 21.2 °F 52% 30.14 in 10.0 mi SE 20.7 mph 25.3 mph N/A   Clear
1:54 PM 37.4 °F 26.9 °F 21.2 °F 52% 30.12 in 10.0 mi SSE 20.7 mph 26.5 mph N/A   Clear
2:14 PM 37.4 °F 27.8 °F 21.2 °F 52% 30.13 in 10.0 mi SSE 17.3 mph 25.3 mph N/A   Clear
2:34 PM 37.4 °F 28.9 °F 23.0 °F 56% 30.12 in 10.0 mi SSE 13.8 mph 20.7 mph N/A   Scattered Clouds
2:54 PM 39.2 °F 30.8 °F 23.0 °F 52% 30.12 in 10.0 mi SSE 15.0 mph 19.6 mph N/A   Mostly Cloudy
3:14 PM 37.4 °F 28.9 °F 23.0 °F 56% 30.11 in 10.0 mi SSE 13.8 mph 23.0 mph N/A   Scattered Clouds
3:34 PM 37.4 °F 28.5 °F 23.0 °F 56% 30.10 in 10.0 mi SSE 15.0 mph 19.6 mph N/A   Clear
3:54 PM 37.4 °F 28.5 °F 23.0 °F 56% 30.09 in 10.0 mi SSE 15.0 mph 21.9 mph N/A   Clear
4:14 PM 37.4 °F 28.2 °F 23.0 °F 56% 30.09 in 10.0 mi SE 16.1 mph 19.6 mph N/A   Clear
4:34 PM 35.6 °F 26.2 °F 21.2 °F 56% 30.08 in 10.0 mi SE 15.0 mph - N/A   Clear
4:54 PM 35.6 °F 26.2 °F 21.2 °F 56% 30.08 in 10.0 mi SSE 15.0 mph 19.6 mph N/A   Clear
5:14 PM 33.8 °F 24.8 °F 21.2 °F 60% 30.08 in 10.0 mi SE 12.7 mph - N/A   Clear
5:34 PM 33.8 °F 24.3 °F 21.2 °F 60% 30.07 in 10.0 mi SE 13.8 mph - N/A   Clear
5:54 PM 32.0 °F 23.6 °F 21.2 °F 64% 30.08 in 10.0 mi SE 10.4 mph - N/A   Clear
6:14 PM 28.4 °F 19.7 °F 19.4 °F 69% 30.08 in 10.0 mi SE 9.2 mph - N/A   Clear
6:34 PM 28.4 °F 19.1 °F 21.2 °F 74% 30.07 in 10.0 mi SE 10.4 mph - N/A   Clear
6:54 PM 26.6 °F 16.8 °F 19.4 °F 74% 30.07 in 10.0 mi SE 10.4 mph - N/A   Clear
7:14 PM 28.4 °F 18.5 °F 21.2 °F 74% 30.07 in 10.0 mi SE 11.5 mph - N/A   Clear
7:34 PM 28.4 °F 19.1 °F 19.4 °F 69% 30.07 in 10.0 mi SE 10.4 mph - N/A   Clear
7:54 PM 26.6 °F 16.8 °F 21.2 °F 80% 30.07 in 10.0 mi SE 10.4 mph - N/A   Clear
8:14 PM 26.6 °F 16.8 °F 19.4 °F 74% 30.07 in 10.0 mi SE 10.4 mph - N/A   Clear
8:34 PM 26.6 °F 16.8 °F 21.2 °F 80% 30.07 in 10.0 mi SE 10.4 mph - N/A   Clear
8:54 PM 26.6 °F 16.2 °F 19.4 °F 74% 30.05 in 10.0 mi SE 11.5 mph - N/A   Clear
9:14 PM 28.4 °F 18.5 °F 21.2 °F 74% 30.04 in 10.0 mi SE 11.5 mph - N/A   Clear
9:34 PM 26.6 °F 17.5 °F 21.2 °F 80% 30.05 in 10.0 mi SE 9.2 mph - N/A   Clear
9:54 PM 24.8 °F 15.3 °F 19.4 °F 80% 30.05 in 10.0 mi SE 9.2 mph - N/A   Clear
10:14 PM 24.8 °F 14.6 °F 19.4 °F 80% 30.04 in 10.0 mi SE 10.4 mph - N/A   Clear
10:34 PM 24.8 °F 15.3 °F 19.4 °F 80% 30.04 in 10.0 mi SE 9.2 mph - N/A   Clear
10:54 PM 23.0 °F 13.1 °F 19.4 °F 86% 30.04 in 10.0 mi SE 9.2 mph - N/A   Clear
11:14 PM 24.8 °F 15.3 °F 19.4 °F 80% 30.03 in 10.0 mi SE 9.2 mph - N/A   Clear
11:34 PM 24.8 °F 16.1 °F 19.4 °F 80% 30.02 in 10.0 mi SE 8.1 mph - N/A   Clear
11:54 PM 24.8 °F 15.3 °F 19.4 °F 80% 30.02 in 10.0 mi SE 9.2 mph - N/A   Clear